This demonstration page uses our WeatherBlox Daily Observations layout. Learn more.

Left ArrowRight Arrow

Hourly Observations for April 14, 2018

Temp ( °F °C ) Dew Point ( °F °C ) Humidity (%) Winds ( mph kmh ) Pressure ( in mb ) Visibility ( mi km ) Precip ( " mm )
12:53 am 00:53 Clear 51 10.6 46 7.8 83 83 undefined N/A 30.29 1026 10 16 0.00 0.00
1:53 am 01:53 Clear 50 10 45 7.2 83 83 NNW 3 6 30.29 1026 10 16 0.00 0.00
2:53 am 02:53 Clear 48 8.9 45 7.2 89 89 NNW 3 6 30.28 1025 10 16 0.00 0.00
3:53 am 03:53 Clear 47 8.3 44 6.7 90 90 Calm 30.28 1025 10 16 0.00 0.00
4:53 am 04:53 Clear 47 8.3 44 6.7 90 90 Calm 30.28 1025 10 16 0.00 0.00
5:53 am 05:53 Clear 46 7.8 43 6.1 89 89 Calm 30.28 1025 10 16 0.00 0.00
6:53 am 06:53 Sunny 45 7.2 43 6.1 93 93 S 3 6 30.29 1026 10 16 0.00 0.00
7:53 am 07:53 Sunny 50 10 46 7.8 86 86 Calm 30.29 1026 10 16 0.00 0.00
8:53 am 08:53 Sunny 57 13.9 46 7.8 67 67 Calm 30.29 1026 10 16 0.00 0.00
9:53 am 09:53 Sunny 61 16.1 48 8.9 63 63 Calm 30.29 1026 10 16 0.00 0.00
10:53 am 10:53 Sunny 64 17.8 48 8.9 56 56 S 6 9 30.28 1025 10 16 0.00 0.00
11:53 am 11:53 Sunny 68 20 48 8.9 49 49 Calm 30.25 1025 10 16 0.00 0.00
12:53 pm 12:53 Sunny 68 20 48 8.9 49 49 VRB 3 6 30.22 1024 10 16 0.00 0.00
1:53 pm 13:53 Sunny 71 21.7 48 8.9 44 44 SE 6 9 30.18 1022 10 16 0.00 0.00
2:53 pm 14:53 Sunny 72 22.2 49 9.4 44 44 SSE 7 11 30.15 1021 10 16 0.00 0.00
3:53 pm 15:53 Sunny 73 22.8 44 6.7 35 35 S 8 13 30.11 1020 10 16 0.00 0.00
4:53 pm 16:53 Sunny 74 23.3 47 8.3 38 38 SSW 10 17 30.08 1019 10 16 0.00 0.00
5:53 pm 17:53 Sunny 73 22.8 44 6.7 35 35 SSW 14 22 30.05 1018 10 16 0.00 0.00
6:53 pm 18:53 Sunny 71 21.7 48 8.9 44 44 S 9 15 30.03 1017 10 16 0.00 0.00
7:53 pm 19:53 Mostly Cloudy 69 20.6 49 9.4 49 49 SSW 5 7 30.02 1017 10 16 0.00 0.00
8:53 pm 20:53 Clear 65 18.3 49 9.4 56 56 S 3 6 30.01 1016 10 16 0.00 0.00
9:53 pm 21:53 Clear 62 16.7 50 10 65 65 S 5 7 30.01 1016 10 16 0.00 0.00
10:53 pm 22:53 Clear 61 16.1 38 3.3 43 43 SSW 6 9 30.00 1016 10 16 0.00 0.00
11:53 pm 23:53 Clear 60 15.6 35 1.7 39 39 undefined N/A 29.98 1015 10 16 0.00 0.00

Powered by AerisWeather